Regional Weather Roundup
Issued by NWS

Home | Current Version | Previous Version | Text Only | Print | Product List | Glossary Off
Versions: 1 2 3 4 5 6 7 8 9 10 11 12 13 14 15 16 17 18 19 20 21 22 23 24 25 26 27 28 29 30 31 32 33 34 35 36 37 38 39 40 41 42 43 44 45 46 47 48 49 50

000
ASUS43 KFSD 241410
RWRSD

WEATHER ROUNDUP FOR SOUTH DAKOTA
NATIONAL WEATHER SERVICE SIOUX FALLS SD
900 AM CDT SUN MAY 24 2015

NOTE: "FAIR" INDICATES FEW OR NO CLOUDS BELOW 12,000 FEET WITH NO
SIGNIFICANT WEATHER AND/OR OBSTRUCTIONS TO VISIBILITY.


SDZ001>005-009-010-012>017-241500-
NORTHWEST AND NORTH CENTRAL SOUTH DAKOTA

CITY           SKY/WX    TMP DP  RH WIND       PRES   REMARKS
BUFFALO          N/A     52  51  97 NE15      29.95F
FAITH            N/A     52  51  97 NE12      29.99F
MOBRIDGE       CLOUDY    58  50  75 E9        29.98S
$$

SDZ012>016-024>037-041>051-057-063-072>074-241500-
SOUTHWEST AND SOUTH CENTRAL SOUTH DAKOTA

CITY           SKY/WX    TMP DP  RH WIND       PRES   REMARKS
RAPID CTY ARPT HVY RAIN  52  51  97 E17       29.93F FOG
PIERRE         CLOUDY    56  54  93 NE8       29.95F
CUSTER         RAIN      46  45  96 E8        29.96F FOG
ELLSWORTH AFB  LGT RAIN  52  52 100 E14       29.93  FOG
PHILIP         LGT RAIN  55  55 100 E14       29.94F FOG
PINE RIDGE     RAIN      53  51  93 E7        29.91F FOG
SPEARFISH      LGT RAIN  50  50 100 E9        29.98S VSB 1
WINNER         LGT RAIN  57  55  93 E8        29.93F VSB 1/4
$$

SDZ004>011-016>023-039-040-241500-
NORTHEAST SOUTH DAKOTA

CITY           SKY/WX    TMP DP  RH WIND       PRES   REMARKS
ABERDEEN       CLOUDY    60  51  72 NE8       29.99F
WATERTOWN      CLOUDY    57  52  83 NE5       30.00S
BROOKINGS      CLOUDY    59  55  88 E9        29.98S
SISSETON         N/A     60  50  69 E5        30.01F
$$

SDZ017-020-022-023-036>040-048>070-241500-
SOUTHEAST SOUTH DAKOTA

CITY           SKY/WX    TMP DP  RH WIND       PRES   REMARKS
SIOUX FALLS    CLOUDY    60  58  92 E12       29.95S
HURON          CLOUDY    58  56  93 NE5       29.96F FOG
CHAMBERLAIN    CLOUDY    56  55  99 NE7       29.94F FOG
MITCHELL       LGT RAIN  59  58  96 NE7       29.95S FOG
YANKTON        CLOUDY    59  57  94 NE7       29.91F
$$

ABBREVIATIONS USED IN REMARKS
   TC - TEMPERATURE IN CELSIUS
  WCI - WIND CHILL INDEX
   HX - HEAT INDEX
  VSB - VISIBILITY



USA.gov is the U.S. government's official web portal to all federal, state and local government web resources and services.